User: anonymous   Login
Location: Acheville
(50.3840°N, 2.8827°E)
Time: 17:11:50
(UTC+00:00)
Language:

SL-8 R/B - Orbit

View from above orbital plane
View from above orbital plane
View from above satellite
View from above satellite

Ground track
Ground track

The orbit data is extracted from the following two-line orbital elements,

1 33066U 08031G   22024.09764386 -.00000022  00000-0  28926-4 0  9999
2 33066  48.4428 161.6779 0007339  23.4940 336.6305 14.69818250730146
Epoch (UTC): 24 January 2022 02:20:36
Eccentricity: 0.0007339
inclination: 48.4428°
perigee height: 656 km
apogee height: 667 km
right ascension of ascending node: 161.6779°
argument of perigee: 23.4940°
revolutions per day: 14.69818250
mean anomaly at epoch: 336.6305°
orbit number at epoch: 73014

The dashed part of the orbit path shows where the satellite is in the earth's shadow,  

DLR